Regional Weather Roundup
Issued by NWS

Home | Current Version | Previous Version | Graphics & Text | Print | Product List | Glossary On
Versions: 1 2 3 4 5 6 7 8 9 10 11 12 13 14 15 16 17 18 19 20 21 22 23 24 25 26 27 28 29 30 31 32 33 34 35 36 37 38 39 40 41 42 43 44 45 46 47 48 49 50
000
ASUS45 KBOI 210810
RWRID

IDAHO REGIONAL WEATHER ROUNDUP
NATIONAL WEATHER SERVICE BOISE ID
200 AM MDT MON AUG 21 2017

NOTE: "FAIR" INDICATES FEW OR NO CLOUDS BELOW 12000 FEET
WITH NO SIGNIFICANT WEATHER AND/OR OBSTRUCTIONS TO VISIBILITY

IDZ012-014-210900-
SOUTHWEST IDAHO


CITY           SKY/WX    TMP DP  RH WIND       PRES   REMARKS
BOISE          CLOUDY    66  36  32 CALM      30.02R
CALDWELL       CLOUDY    61  48  62 N3        30.01R
MOUNTAIN HOME  PTCLDY    66  35  32 NW7       30.02S
$$

IDZ016-017-210900-
SOUTHCENTRAL IDAHO


CITY           SKY/WX    TMP DP  RH WIND       PRES   REMARKS
BURLEY         CLEAR     55  42  61 W8        30.08R
JEROME         CLEAR     62  36  37 S6        30.09R
TWIN FALLS     CLEAR     62  31  31 S10       30.10R
$$

IDZ019>023-210900-
SOUTHEAST IDAHO


CITY           SKY/WX    TMP DP  RH WIND       PRES   REMARKS
IDAHO FALLS    CLEAR     57  39  51 SW9       30.11R
POCATELLO      CLEAR     70  27  20 SW12G22   30.11R
REXBURG        CLOUDY    61  37  41 VRB3      30.11R
$$

IDZ006-010-011-018-031-032-210900-
CENTRAL IDAHO MOUNTAINS


CITY           SKY/WX    TMP DP  RH WIND       PRES   REMARKS
MCCALL         MOCLDY    60  33  36 NW5       30.15S
HAILEY         PTCLDY    55  32  41 NW7       30.16R
STANLEY          N/A     49  29  46 S3        30.24R
SALMON         PTCLDY    59  34  39 CALM      30.12R
CHALLIS        CLOUDY    61  35  37 N6        30.14R
$$

IDZ002-004-006-007-026-210900-
NORTHERN IDAHO


CITY           SKY/WX    TMP DP  RH WIND       PRES   REMARKS
LEWISTON       LGT RAIN  65  41  41 S5        30.06R
LOWELL           N/A     58  46  64 CALM      30.10R
COEUR D`ALENE  CLEAR     58  43  57 E5        30.11R
MULLAN PASS    CLEAR     53  32  44 NW5       30.25R
$$



USA.gov is the U.S. government's official web portal to all federal, state and local government web resources and services.